Weather History for Springfield, VT

Change the Weather History Date:

Thursday, February 14, 2013

  Actual Average Record
Temperature  
Mean Temperature 30 °F 23 °F  
Max Temperature 39 °F 33 °F 50 °F (2011)
Min Temperature 20 °F 13 °F -18 °F (2003)
Degree Days  
Heating Degree Days 35 42  
Month to date heating degree days 613 611  
Since 1 July heating degree days 4337 4883  
Moisture  
Dew Point 18 °F    
Average Humidity 64    
Maximum Humidity 84    
Minimum Humidity 44    
Precipitation  
Precipitation 0.00 in 0.11 in 1.12 in (2007)
Month to date precipitation 0.81 1.37  
Year to date precipitation 2.14 4.29  
Sea Level Pressure  
Sea Level Pressure 29.89 in    
Wind  
Wind Speed 2 mph (NNW)    
Max Wind Speed 14 mph    
Max Gust Speed -    
Visibility 9 miles    
Events      
T = Trace of Precipitation, MM = Missing Value Source: NWS Daily Summary

Daily Weather History Graph

Daily Weather History Graph

Search for Another Location

Airport:

Trip Planner

Search our weather history database for the weather conditions in past years. The results will help you decide how hot, cold, wet, or windy it might be!

Date:

Astronomy

Feb. 14, 2013 Rise Set
Actual Time 6:49 AM EST 5:19 PM EST
Civil Twilight 6:19 AM EST 5:49 PM EST
Nautical Twilight 5:46 AM EST 6:22 PM EST
Astronomical Twilight 5:13 AM EST 6:55 PM EST
Moon 8:40 AM EST (2/14) 10:30 PM EST (2/14)
Length of Visible Light 11h 29m
Length of Day
10h 30m
Waxing Crescent, 21% of the Moon is Illuminated
Feb 14
Waxing Crescent
Feb 17
First Quarter
Feb 25
Full
Mar 4
Last Quarter
Mar 11
New

Hourly Weather History & Observations

Time (EST) Temp. Windchill Dew Point Humidity Pressure Visibility Wind Dir Wind Speed Gust Speed Precip Events Conditions
12:54 AM 25.0 °F - 18.0 °F 75% 29.74 in 10.0 mi Calm Calm - N/A   Partly Cloudy
1:54 AM 24.1 °F - 18.0 °F 77% 29.78 in 9.0 mi Calm Calm - N/A   Clear
2:54 AM 21.0 °F - 16.0 °F 81% 29.78 in 10.0 mi Calm Calm - N/A   Clear
3:54 AM 21.0 °F - 17.1 °F 85% 29.80 in 10.0 mi Calm Calm - N/A   Overcast
4:54 AM 21.9 °F - 17.1 °F 82% 29.81 in 10.0 mi Calm Calm - N/A   Overcast
5:54 AM 21.9 °F - 17.1 °F 82% 29.83 in 4.0 mi Calm Calm - N/A   Haze
6:54 AM 21.9 °F - 17.1 °F 82% 29.85 in 9.0 mi Calm Calm - N/A   Mostly Cloudy
7:54 AM 21.9 °F - 17.1 °F 82% 29.88 in 5.0 mi Calm Calm - N/A   Haze
8:54 AM 25.0 °F - 18.0 °F 75% 29.91 in 9.0 mi Calm Calm - N/A   Overcast
9:54 AM 32.0 °F 27.5 °F 19.0 °F 59% 29.91 in 10.0 mi Variable 4.6 mph - N/A   Scattered Clouds
10:54 AM 34.0 °F 24.6 °F 16.0 °F 48% 29.92 in 10.0 mi West 13.8 mph - N/A   Scattered Clouds
11:54 AM 36.0 °F 30.3 °F 17.1 °F 46% 29.92 in 10.0 mi Variable 6.9 mph - N/A   Overcast
12:54 PM 37.0 °F 31.0 °F 19.0 °F 48% 29.90 in 10.0 mi North 8.1 mph - N/A   Overcast
1:54 PM 37.9 °F 33.5 °F 18.0 °F 45% 29.89 in 10.0 mi North 5.8 mph - N/A   Clear
2:54 PM 37.0 °F 34.5 °F 18.0 °F 46% 29.90 in 10.0 mi SE 3.5 mph - N/A   Partly Cloudy
3:54 PM 37.9 °F - 18.0 °F 45% 29.91 in 10.0 mi Calm Calm - N/A   Clear
4:54 PM 37.9 °F - 17.1 °F 43% 29.92 in 10.0 mi Calm Calm - N/A   Clear
5:54 PM 30.0 °F 26.5 °F 19.0 °F 64% 29.95 in 10.0 mi NNW 3.5 mph - N/A   Clear
6:54 PM 27.0 °F - 19.0 °F 72% 29.98 in 10.0 mi Calm Calm - N/A   Clear
7:54 PM 26.1 °F - 18.0 °F 71% 29.97 in 10.0 mi Calm Calm - N/A   Overcast
8:54 PM 27.0 °F - 19.0 °F 72% 29.96 in 9.0 mi Calm Calm - N/A   Scattered Clouds
9:54 PM 26.1 °F - 19.0 °F 75% 29.98 in 7.0 mi Calm Calm - N/A   Overcast
10:54 PM 26.1 °F - 19.0 °F 75% 29.97 in 8.0 mi Calm Calm - N/A   Overcast
11:54 PM 25.0 °F - 19.0 °F 78% 29.97 in 6.0 mi Calm Calm - N/A   Haze